星链-34959 (STARLINK-34959)

导读

STARLINK-34959是美国太空探索技术公司(SpaceX)星链星座的成员卫星,于2025年8月18日发射入轨。星链项目旨在构建全球卫星互联网星座,为全球多地提供高速低延迟的宽带服务,该卫星加入后进一步扩充了星链星座的在轨规模,提升星座网络覆盖与服务能力。

Basic Information
目录编号:
65246
目录名称:
STARLINK-34959
国际标识:
2025-179M
轨道中心:
EARTH
卫星名称:
星链-34959
卫星全名:
星链-34959 (STARLINK-34959)
卫星状态:
在轨 (已飞行382 天)
发射日期:
2025-08-18 UTC
国别 :
美国 (US)
星等 :
--
Orbit Information
数据来源 国际轨道数据 AOE轨道数据
星历时间 2026-09-03T09:35:54+0800
1天前
查看轨道信息
2026-09-03T22:00:00+0800
14小时前
查看轨道信息
半长轴 6843.674km 6843.717km
偏心率 0.0000915 0.0000642
轨道倾角 97.285° 97.287°
近地点辐角 94.615° 123.691°
升交点赤经 285.700° 286.210°
平近点角 265.520° 207.147°
近地点 464.91km 465.14km
远地点 466.164km 466.02km
周期 93.906分钟 93.907分钟
每日圈数 15.334473 15.334328
Detailed Information
固有亮度:
5
最大亮度:
2.5
卫星平台:
Starlink V1.0
覆盖范围:
全球
运营商:
太空探索技术公司
运营商所在国:
美国
制造商(研发单位):
太空探索技术公司
制造商所在国:
美国
使用方式:
暂无
Satellite Introduction
Starlink 计划是 SpaceX 推出的全球卫星互联网项目,通过发射低轨道卫星,为全球尤其是偏远地区提供高速、低延迟的互联网服务。自 2019 年起,Starlink 已部署数千颗卫星,旨在缩小全球数字鸿沟,推动互联网普及。该项目还为军事、航空等行业提供通信支持,带来广泛经济效益。
2D Orbit Map
3D Orbit Map
Orbit Altitude Analysis Chart
Orbit Inclination Analysis Chart
Orbit Comprehensive Analysis Chart
View Comprehensive Chart
Conjunction Data List
Event ID Objects TCA Miss Dist (km) Collision Risk Probability Collision Risk Index (CRI) Action
CDM_260827-213106-524606-591821
2026-08-27T
21:31:55+0000
2.697 km
极远距离
1.542966E-6 低风险 0.39
CDM_260905-060505-199606-524621
2026-09-05T
06:05:42+0000
2.405 km
极远距离
1.086384E-6 低风险 0.36
CDM_260904-220905-283206-524621
2026-09-04T
22:09:50+0000
2.787 km
极远距离
8.794389E-7 极低风险 0.34